DW7214 Weather Reports


time (UTC)temp
C
wind
direction
speed
KPH
gust
KPH
rain 1hr
cm
rain 24hr
cm
rain mn
cm
humidity
%
barometer
mb
20260904210015 14 190 0.0 6.4 0.10 1.17 0.64 87 1013.9
20260904204513 15 143 1.6 9.7 0.10 1.19 0.64 84 1013.9
20260904203006 16 84 1.6 14.5 0.03 1.12 0.56 79 1013.7
20260904201518 17 33 0.0 9.7 0.00 1.09 0.53 74 1013.7
20260904200012 17 11 1.6 11.3 0.00 1.09 0.53 75 1013.6
20260904194520 16 329 3.2 8.0 0.00 1.17 0.53 81 1013.7
20260904193033 16 341 3.2 8.0 0.00 1.32 0.53 82 1013.7
20260904191511 16 265 3.2 11.3 0.00 1.42 0.53 82 1013.8
20260904190016 15 302 1.6 6.4 0.00 1.57 0.53 85 1013.9
20260904184517 15 283 1.6 6.4 0.05 1.63 0.53 86 1013.8
20260904183016 15 279 1.6 4.8 0.05 1.63 0.53 85 1013.7
20260904181515 15 261 0.0 8.0 0.05 1.63 0.53 91 1013.6
20260904180012 14 221 3.2 6.4 0.05 1.63 0.53 1013.5
20260904174520 14 232 0.0 4.8 0.00 1.57 0.48 1013.6
20260904173026 14 283 0.0 0.0 0.00 1.57 0.48 1013.5
20260904171524 14 264 0.0 4.8 0.00 1.57 0.48 87 1013.5
20260904170021 14 341 0.0 3.2 0.00 1.57 0.48 89 1013.4
20260904164514 13 271 1.6 6.4 0.00 1.57 0.48 89 1013.1
20260904163023 13 342 3.2 6.4 0.00 1.57 0.48 90 1013.1
20260904161520 13 267 1.6 4.8 0.00 1.60 0.48 92 1013.0
20260904160022 12 277 0.0 0.0 0.00 1.68 0.48 94 1013.0
20260904154512 12 273 0.0 1.6 0.05 1.70 0.48 95 1013.0
20260904153023 12 251 0.0 0.0 0.08 1.73 0.48 95 1013.0
20260904151537 12 236 0.0 0.0 0.10 1.85 0.48 95 1012.9
20260904150033 12 250 0.0 0.0 0.10 1.93 0.48 95 1012.7
20260904144526 12 221 0.0 3.2 0.05 1.93 0.43 95 1012.5
20260904143017 11 226 0.0 0.0 0.10 2.01 0.41 95 1012.4
20260904141526 11 226 0.0 3.2 0.08 2.01 0.38 95 1012.3
20260904140026 11 237 0.0 4.8 0.08 2.01 0.38 95 1012.1
20260904134526 11 225 0.0 3.2 0.08 2.03 0.38 95 1011.9
20260904133025 11 232 1.6 4.8 0.00 1.96 0.30 95 1011.8
20260904131524 11 212 0.0 4.8 0.00 1.98 0.30 95 1011.8
20260904130006 11 220 0.0 3.2 0.00 2.03 0.30 95 1011.6
20260904124510 11 229 3.2 4.8 0.00 2.06 0.30 95 1011.5
20260904123014 11 242 0.0 0.0 0.03 2.11 0.30 95 1011.5
20260904121527 11 241 0.0 3.2 0.03 2.18 0.30 95 1011.5
20260904120037 11 244 0.0 1.6 0.05 2.41 0.30 95 1011.4
20260904114507 11 276 0.0 4.8 0.10 2.46 0.30 95 1011.3
20260904113028 11 241 0.0 0.0 0.13 2.49 0.28 96 1011.2
20260904111524 11 275 0.0 0.0 0.15 2.51 0.28 96 1011.1
20260904110027 11 239 0.0 0.0 0.15 2.54 0.25 96 1011.2
20260904104528 11 239 0.0 0.0 0.13 2.49 0.20 95 1011.1
20260904103008 11 239 0.0 0.0 0.13 2.44 0.15 95 1011.2
20260904101516 11 239 0.0 0.0 0.13 2.41 0.13 95 1011.0
20260904100021 11 246 0.0 4.8 0.10 2.39 0.10 95 1010.8
20260904094526 11 244 0.0 3.2 0.08 2.36 0.08 95 1010.9
20260904093008 11 248 0.0 3.2 0.03 2.31 0.03 95 1010.7
20260904091510 11 242 0.0 3.2 0.00 2.29 0.00 95 1010.6
20260904090019 11 208 0.0 4.8 0.00 2.29 0.00 95 1010.7
20260904084526 11 242 1.6 3.2 0.00 2.29 0.00 95 1010.6
20260904083032 11 238 0.0 0.0 0.00 2.29 0.00 94 1010.7
20260904081514 11 234 0.0 4.8 0.00 2.29 0.00 95 1010.8
20260904080024 11 234 1.6 4.8 0.00 2.29 0.00 95 1010.7
20260904074530 12 230 0.0 0.0 0.00 2.29 0.00 95 1010.8
20260904073034 12 242 0.0 0.0 0.00 2.29 0.00 95 1010.8
20260904071530 12 232 0.0 0.0 0.00 2.29 0.00 95 1010.8
20260904070016 12 234 0.0 0.0 0.00 2.29 0.00 95 1010.7
20260904064520 12 232 0.0 0.0 0.00 2.29 2.29 95 1010.6
20260904063028 12 226 0.0 0.0 0.00 2.29 2.29 95 1010.6
20260904061529 12 233 0.0 0.0 0.00 2.29 2.29 95 1010.7
20260904060031 12 231 0.0 1.6 0.00 2.29 2.29 95 1010.7
20260904054518 12 234 0.0 3.2 0.00 2.29 2.29 95 1010.8
20260904053023 12 227 1.6 3.2 0.00 2.29 2.29 95 1010.8
20260904051532 12 234 0.0 3.2 0.00 2.29 2.29 95 1010.9
20260904050037 12 236 0.0 3.2 0.00 2.29 2.29 94 1010.9
20260904044541 12 229 0.0 0.0 0.00 2.29 2.29 94 1010.9
20260904043018 12 270 0.0 0.0 0.00 2.29 2.29 94 1010.9
20260904041506 12 239 0.0 0.0 0.00 2.29 2.29 94 1010.8
20260904040008 12 238 0.0 0.0 0.03 2.29 2.29 94 1010.8
20260904034511 12 238 0.0 0.0 0.03 2.29 2.29 93 1010.7
20260904033020 12 238 0.0 0.0 0.10 2.29 2.29 93 1010.5
20260904031504 12 9 0.0 0.0 0.18 2.29 2.29 92 1010.4
20260904030005 13 9 0.0 0.0 0.20 2.26 2.26 91 1010.3
20260904024510 13 9 0.0 3.2 0.28 2.26 2.26 90 1010.2
20260904023013 13 40 0.0 0.0 0.23 2.18 2.18 91 1010.2
20260904021518 13 40 0.0 0.0 0.15 2.11 2.11 91 1010.1
20260904020004 13 40 0.0 0.0 0.10 2.06 2.06 91 1010.1
20260904014506 13 40 0.0 0.0 0.05 1.98 1.98 89 1010.0
20260904013012 14 40 0.0 3.2 0.05 1.96 1.96 90 1010.0
20260904011516 14 51 1.6 6.4 0.05 1.96 1.96 89 1009.9
20260904010024 14 37 1.6 6.4 0.08 1.96 1.96 89 1010.1
20260904004505 14 280 0.0 0.0 0.08 1.93 1.93 90 1010.0
20260904003008 14 280 0.0 0.0 0.05 1.91 1.91 89 1010.0
20260904001515 14 90 0.0 0.0 0.05 1.91 1.91 89 1010.1
20260904000020 14 121 0.0 0.0 0.03 1.88 1.88 86 1010.3
20260903234528 14 194 0.0 3.2 0.00 1.85 1.85 85 1010.3
20260903233008 14 180 0.0 3.2 0.00 1.85 1.85 86 1010.2
20260903231511 14 57 1.6 4.8 0.00 1.85 1.85 84 1010.3
20260903230022 14 36 0.0 4.8 0.03 1.88 1.85 87 1010.3
20260903224523 13 108 0.0 4.8 0.03 1.88 1.85 88 1010.4
20260903223005 13 34 0.0 4.8 0.08 1.88 1.85 89 1010.6
20260903221508 13 37 1.6 4.8 0.10 1.88 1.85 90 1010.7
20260903220022 13 65 0.0 4.8 0.08 1.88 1.83 90 1010.7
20260903214525 13 118 1.6 8.0 0.10 1.88 1.83 88 1010.7
20260903213030 13 87 1.6 6.4 0.05 2.06 1.78 88 1010.5
20260903211509 14 153 0.0 4.8 0.03 2.11 1.75 89 1010.6